Winter Haven, FL

6:07 PM EDT on October 01, 2016 (GMT -0400)
Winter Haven's-Gilbert

Weather History for KGIF - December, 2012

Change the Weather History Date:

Tuesday, December 18, 2012

  Actual Average Record
Temperature  
Mean Temperature 68 °F -  
Max Temperature 80 °F 73 °F 89 °F (1948)
Min Temperature 57 °F 50 °F 29 °F (1973)
Cooling Degree Days 4    
Growing Degree Days 18 (Base 50)    
Moisture  
Dew Point 63 °F    
Average Humidity 84    
Maximum Humidity 100    
Minimum Humidity 43    
Precipitation  
Precipitation 0.00 in - - ()
Sea Level Pressure  
Sea Level Pressure 29.96 in    
Wind  
Wind Speed 9 mph (WSW)    
Max Wind Speed 14 mph    
Max Gust Speed 21 mph    
Visibility 7 miles    
Events      
Averages and records for this station are not official NWS values.
T = Trace of Precipitation, MM = Missing Value Source: NWS Daily Summary

Daily Weather History Graph

Daily Weather History Graph

Search for Another Location

Airport or City:

Trip Planner

Search our weather history database for the weather conditions in past years. The results will help you decide how hot, cold, wet, or windy it might be!

Date:

Astronomy

Dec. 18, 2012 Rise Set
Actual Time 7:12 AM EST 5:34 PM EST
Civil Twilight 6:47 AM EST 6:00 PM EST
Nautical Twilight 6:17 AM EST 6:30 PM EST
Astronomical Twilight 5:49 AM EST 6:58 PM EST
Moon 11:18 AM EST (12/18) 11:30 PM EST (12/18)
Length of Visible Light 11h 13m
Length of Day
10h 21m
Waxing Crescent, 34% of the Moon is Illuminated
Dec 18
Waxing Crescent
Dec 20
First Quarter
Dec 28
Full
Jan 4
Last Quarter
Jan 11
New

Hourly Weather History & Observations

Time (EST) Temp. Heat Index Dew Point Humidity Pressure Visibility Wind Dir Wind Speed Gust Speed Precip Events Conditions
12:53 AM 66.9 °F - 66.0 °F 97% 29.91 in 9.0 mi SSW 9.2 mph - N/A   Clear
1:05 AM 66.9 °F - 66.0 °F 97% 29.92 in 8.0 mi SSW 8.1 mph - N/A   Scattered Clouds
1:15 AM 66.9 °F - 66.0 °F 97% 29.92 in 7.0 mi SSW 8.1 mph - N/A   Mostly Cloudy
1:43 AM 66.9 °F - 66.0 °F 97% 29.91 in 2.0 mi SSW 8.1 mph - N/A   Overcast
1:48 AM 66.2 °F - 66.2 °F 100% 29.91 in 1.5 mi SSW 10.4 mph - N/A   Overcast
1:53 AM 66.9 °F - 66.0 °F 97% 29.91 in 1.2 mi SSW 8.1 mph - N/A   Overcast
2:06 AM 66.9 °F - 66.9 °F 100% 29.91 in 0.8 mi SSW 8.1 mph - N/A   Mist
2:30 AM 66.9 °F - 66.9 °F 100% 29.92 in 1.8 mi SW 10.4 mph - N/A   Overcast
2:38 AM 66.9 °F - 66.9 °F 100% 29.92 in 2.0 mi SW 10.4 mph - N/A   Overcast
2:48 AM 66.2 °F - 66.2 °F 100% 29.92 in 3.0 mi SW 10.4 mph - N/A   Overcast
2:53 AM 66.9 °F - 66.9 °F 100% 29.92 in 4.0 mi WSW 10.4 mph - N/A   Overcast
3:53 AM 66.9 °F - 66.9 °F 100% 29.92 in 6.0 mi SW 5.8 mph - N/A   Overcast
4:53 AM 66.9 °F - 66.9 °F 100% 29.93 in 5.0 mi WSW 6.9 mph - N/A   Overcast
5:53 AM 68.0 °F - 66.9 °F 96% 29.94 in 7.0 mi WSW 6.9 mph - N/A   Overcast
6:25 AM 68.0 °F - 66.9 °F 96% 29.95 in 8.0 mi WSW 8.1 mph - N/A   Overcast
6:44 AM 68.0 °F - 66.9 °F 96% 29.96 in 8.0 mi SW 5.8 mph - N/A   Overcast
6:53 AM 68.0 °F - 66.9 °F 96% 29.95 in 9.0 mi SW 5.8 mph - N/A   Overcast
7:40 AM 69.1 °F - 68.0 °F 96% 29.97 in 7.0 mi WSW 6.9 mph - N/A   Overcast
7:53 AM 69.1 °F - 68.0 °F 96% 29.96 in 6.0 mi WSW 8.1 mph - N/A   Overcast
8:53 AM 70.0 °F - 69.1 °F 97% 29.97 in 6.0 mi SW 6.9 mph - N/A   Overcast
9:06 AM 70.0 °F - 69.1 °F 97% 29.99 in 7.0 mi WSW 9.2 mph - N/A   Overcast
9:24 AM 70.0 °F - 69.1 °F 97% 29.99 in 8.0 mi WSW 11.5 mph - N/A   Overcast
9:38 AM 70.0 °F - 69.1 °F 97% 29.99 in 9.0 mi WSW 8.1 mph - N/A   Overcast
9:53 AM 71.1 °F - 69.1 °F 93% 29.99 in 10.0 mi SW 9.2 mph - N/A   Overcast
10:36 AM 75.0 °F - 68.0 °F 79% 29.99 in 10.0 mi WSW 11.5 mph - N/A   Mostly Cloudy
10:53 AM 77.0 °F - 66.9 °F 71% 29.98 in 10.0 mi WSW 12.7 mph - N/A   Mostly Cloudy
11:22 AM 77.0 °F - 68.0 °F 74% 29.98 in 10.0 mi West 6.9 mph - N/A   Mostly Cloudy
11:53 AM 79.0 °F - 66.0 °F 64% 29.97 in 10.0 mi West 11.5 mph - N/A   Partly Cloudy
12:53 PM 80.1 °F 81.2 °F 62.1 °F 54% 29.95 in 10.0 mi WNW 13.8 mph - N/A   Scattered Clouds
1:53 PM 80.1 °F 80.9 °F 60.1 °F 50% 29.94 in 10.0 mi West 12.7 mph - N/A   Mostly Cloudy
2:53 PM 79.0 °F - 57.9 °F 48% 29.95 in 10.0 mi WNW 12.7 mph 20.7 mph N/A   Mostly Cloudy
3:53 PM 78.1 °F - 54.0 °F 43% 29.96 in 10.0 mi WNW 12.7 mph - N/A   Clear
4:53 PM 75.0 °F - 51.1 °F 43% 29.97 in 10.0 mi NW 11.5 mph - N/A   Clear
5:53 PM 70.0 °F - 52.0 °F 53% 29.99 in 10.0 mi WNW 6.9 mph - N/A   Clear
6:53 PM 66.0 °F - 54.0 °F 65% 30.01 in 10.0 mi WNW 5.8 mph - N/A   Clear
7:53 PM 64.0 °F - 51.1 °F 63% 30.02 in 10.0 mi WNW 6.9 mph - N/A   Clear
8:53 PM 61.0 °F - 53.1 °F 75% 30.03 in 10.0 mi NW 5.8 mph - N/A   Clear
9:53 PM 57.9 °F - 51.1 °F 78% 30.05 in 10.0 mi NW 6.9 mph - N/A   Clear
10:53 PM 57.0 °F - 48.9 °F 74% 30.05 in 10.0 mi NW 5.8 mph - N/A   Clear
11:53 PM 57.0 °F - 48.9 °F 74% 30.05 in 10.0 mi NNW 6.9 mph - N/A   Clear